Weather History for Osceola, WI

Change the Weather History Date:

Saturday, February 22, 2014

  Actual Average (KMSP) Record (KMSP)
Temperature  
Mean Temperature 9 °F 23 °F  
Max Temperature 15 °F 31 °F 57 °F (1930)
Min Temperature 3 °F 16 °F -22 °F (1873)
Degree Days  
Heating Degree Days 56 42  
Month to date heating degree days 996  
Since 1 July heating degree days 5550  
Cooling Degree Days 0 0  
Month to date cooling degree days 0  
Year to date cooling degree days 0  
Moisture  
Dew Point 2 °F    
Average Humidity 74    
Maximum Humidity 82    
Minimum Humidity 63    
Precipitation  
Precipitation 0.00 in 0.04 in 1.13 in (1922)
Month to date precipitation 0.55  
Year to date precipitation 1.45  
Snow  
Snow 0.00 in 0.30 in 8.80 in (1913)
Month to date snowfall 5.8  
Since 1 July snowfall 39.8  
Snow Depth -    
Sea Level Pressure  
Sea Level Pressure 29.95 in    
Wind  
Wind Speed 12 mph (West)    
Max Wind Speed 20 mph    
Max Gust Speed 22 mph    
Visibility 10 miles    
Events      
T = Trace of Precipitation, MM = Missing Value Source: NWS Daily Summary

Daily Weather History Graph

Daily Weather History Graph

Search for Another Location

Airport:

Trip Planner

Search our weather history database for the weather conditions in past years. The results will help you decide how hot, cold, wet, or windy it might be!

Date:

Astronomy

Feb. 22, 2014 Rise Set
Actual Time 7:00 AM CST 5:48 PM CST
Civil Twilight 6:30 AM CST 6:18 PM CST
Nautical Twilight 5:56 AM CST 6:52 PM CST
Astronomical Twilight 5:22 AM CST 7:26 PM CST
Moon 1:03 AM CST (2/22) 10:52 AM CST (2/22)
Length of Visible Light 11h 47m
Length of Day
10h 47m
Waning Gibbous, 50% of the Moon is Illuminated
Feb 22
Waning Gibbous
Mar 1
New
Mar 8
First Quarter
Mar 16
Full
Mar 23
Last Quarter

Hourly Weather History & Observations

Time (CST) Temp. Windchill Dew Point Humidity Pressure Visibility Wind Dir Wind Speed Gust Speed Precip Events Conditions
12:15 AM 8.6 °F -5.5 °F 3.9 °F 81% 29.76 in 10.0 mi West 10.4 mph - N/A   Clear
12:35 AM 8.4 °F -6.5 °F 3.7 °F 81% 29.76 in 10.0 mi West 11.5 mph - N/A   Clear
12:55 AM 8.1 °F -6.2 °F 3.4 °F 81% 29.77 in 10.0 mi West 10.4 mph - N/A   Clear
1:15 AM 7.9 °F -8.0 °F 3.2 °F 81% 29.78 in 10.0 mi West 12.7 mph - N/A   Clear
1:35 AM 7.5 °F -7.7 °F 2.8 °F 81% 29.79 in 10.0 mi West 11.5 mph - N/A   Clear
1:55 AM 7.5 °F -7.7 °F 2.8 °F 81% 29.80 in 10.0 mi West 11.5 mph - N/A   Clear
2:15 AM 6.8 °F -6.9 °F 2.1 °F 81% 29.80 in 10.0 mi West 9.2 mph - N/A   Clear
2:35 AM 6.8 °F -8.6 °F 2.3 °F 82% 29.80 in 10.0 mi West 11.5 mph - N/A   Clear
2:55 AM 6.8 °F -10.0 °F 1.9 °F 80% 29.81 in 10.0 mi West 13.8 mph - N/A   Clear
3:15 AM 6.6 °F -8.8 °F 1.6 °F 80% 29.82 in 10.0 mi West 11.5 mph 19.6 mph N/A   Clear
3:35 AM 6.4 °F -9.0 °F 1.4 °F 80% 29.81 in 10.0 mi West 11.5 mph 18.4 mph N/A   Clear
3:55 AM 5.9 °F -10.5 °F 0.9 °F 80% 29.82 in 10.0 mi West 12.7 mph - N/A   Clear
4:10 AM 5.5 °F -10.2 °F 0.3 °F 79% 29.83 in 10.0 mi West 11.5 mph - N/A   Clear
4:35 AM 5.2 °F -10.6 °F 0.1 °F 80% 29.85 in 10.0 mi West 11.5 mph - N/A   Clear
4:55 AM 4.6 °F -10.4 °F -0.4 °F 80% 29.86 in 10.0 mi West 10.4 mph - N/A   Clear
5:15 AM 4.6 °F -10.4 °F -0.4 °F 80% 29.87 in 10.0 mi West 10.4 mph - N/A   Clear
5:35 AM 4.5 °F -10.7 °F -0.6 °F 80% 29.87 in 10.0 mi West 10.4 mph - N/A   Clear
5:55 AM 3.9 °F -11.3 °F -1.1 °F 80% 29.88 in 10.0 mi West 10.4 mph - N/A   Clear
6:15 AM 3.6 °F -10.9 °F -1.5 °F 80% 29.89 in 10.0 mi West 9.2 mph - N/A   Clear
6:35 AM 3.4 °F -10.0 °F -1.5 °F 80% 29.89 in 10.0 mi West 8.1 mph - N/A   Clear
6:55 AM 3.0 °F -12.5 °F -2.0 °F 80% 29.90 in 10.0 mi West 10.4 mph - N/A   Clear
7:15 AM 3.0 °F -11.5 °F -2.2 °F 79% 29.91 in 10.0 mi West 9.2 mph - N/A   Clear
7:35 AM 3.6 °F -11.8 °F -2.0 °F 78% 29.93 in 10.0 mi WSW 10.4 mph - N/A   Clear
7:55 AM 4.1 °F -11.1 °F -1.7 °F 77% 29.94 in 10.0 mi WSW 10.4 mph - N/A   Clear
8:15 AM 4.3 °F -12.5 °F -1.7 °F 76% 29.94 in 10.0 mi WSW 12.7 mph - N/A   Clear
8:35 AM 5.0 °F -9.1 °F -1.3 °F 75% 29.94 in 10.0 mi West 9.2 mph - N/A   Clear
8:55 AM 5.5 °F -9.3 °F -1.3 °F 73% 29.94 in 10.0 mi West 10.4 mph - N/A   Clear
9:15 AM 6.3 °F -10.0 °F -0.9 °F 72% 29.95 in 10.0 mi West 12.7 mph 16.1 mph N/A   Clear
9:35 AM 6.8 °F -9.3 °F -0.4 °F 72% 29.95 in 10.0 mi WSW 12.7 mph - N/A   Clear
9:55 AM 7.7 °F -5.8 °F -0.0 °F 71% 29.96 in 10.0 mi West 9.2 mph - N/A   Clear
10:15 AM 8.4 °F -7.3 °F 0.5 °F 70% 29.97 in 10.0 mi West 12.7 mph - N/A   Clear
10:35 AM 9.5 °F -7.2 °F 1.2 °F 69% 29.98 in 10.0 mi West 15.0 mph - N/A   Clear
10:55 AM 10.2 °F -5.0 °F 1.6 °F 68% 29.97 in 10.0 mi West 12.7 mph - N/A   Clear
11:15 AM 10.9 °F -5.4 °F 1.9 °F 67% 29.98 in 10.0 mi West 15.0 mph - N/A   Clear
11:35 AM 11.8 °F -3.0 °F 2.3 °F 66% 29.97 in 10.0 mi West 12.7 mph - N/A   Clear
11:55 AM 12.7 °F -1.8 °F 3.4 °F 66% 29.97 in 10.0 mi West 12.7 mph - N/A   Scattered Clouds
12:15 PM 13.3 °F -0.5 °F 3.6 °F 65% 29.96 in 10.0 mi West 11.5 mph - N/A   Scattered Clouds
12:35 PM 13.5 °F -1.5 °F 3.9 °F 66% 29.96 in 7.0 mi West 13.8 mph - N/A   Clear
12:55 PM 14.0 °F -0.2 °F 4.3 °F 65% 29.96 in 10.0 mi West 12.7 mph 20.7 mph N/A   Clear
1:15 PM 14.4 °F -0.4 °F 4.6 °F 65% 29.96 in 10.0 mi West 13.8 mph 19.6 mph N/A   Clear
1:35 PM 14.7 °F -1.1 °F 4.6 °F 64% 29.96 in 10.0 mi West 16.1 mph 19.6 mph N/A   Clear
1:55 PM 14.5 °F -2.7 °F 4.1 °F 63% 29.97 in 10.0 mi West 19.6 mph - N/A   Clear
2:15 PM 14.9 °F -0.8 °F 4.8 °F 64% 29.97 in 10.0 mi West 16.1 mph - N/A   Clear
2:35 PM 15.1 °F -0.6 °F 5.0 °F 64% 29.98 in 10.0 mi West 16.1 mph - N/A   Clear
2:55 PM 14.9 °F -0.3 °F 4.8 °F 64% 29.98 in 10.0 mi West 15.0 mph 20.7 mph N/A   Clear
3:15 PM 14.7 °F -1.1 °F 4.6 °F 64% 29.99 in 10.0 mi West 16.1 mph 21.9 mph N/A   Clear
3:35 PM 14.7 °F -1.1 °F 4.6 °F 64% 29.99 in 10.0 mi West 16.1 mph 21.9 mph N/A   Clear
3:55 PM 14.5 °F -1.3 °F 4.6 °F 65% 29.99 in 10.0 mi West 16.1 mph - N/A   Clear
4:15 PM 14.4 °F -1.0 °F 4.6 °F 65% 29.99 in 10.0 mi West 15.0 mph - N/A   Clear
4:35 PM 14.0 °F 1.2 °F 4.6 °F 66% 29.99 in 10.0 mi West 10.4 mph - N/A   Clear
4:55 PM 13.8 °F -0.5 °F 4.5 °F 66% 30.00 in 10.0 mi West 12.7 mph 19.6 mph N/A   Clear
5:15 PM 12.9 °F -0.2 °F 4.1 °F 68% 30.00 in 10.0 mi WSW 10.4 mph - N/A   Clear
5:35 PM 12.2 °F -1.0 °F 3.9 °F 69% 30.01 in 10.0 mi West 10.4 mph - N/A   Clear
5:55 PM 11.3 °F -2.2 °F 3.2 °F 70% 30.01 in 10.0 mi WSW 10.4 mph - N/A   Clear
6:15 PM 10.4 °F -3.3 °F 3.0 °F 72% 30.02 in 10.0 mi West 10.4 mph - N/A   Clear
6:35 PM 9.3 °F -4.6 °F 2.3 °F 73% 30.03 in 10.0 mi West 10.4 mph - N/A   Clear
6:55 PM 9.1 °F -4.9 °F 2.5 °F 74% 30.04 in 10.0 mi West 10.4 mph - N/A   Clear
7:15 PM 9.0 °F -5.9 °F 2.1 °F 74% 30.04 in 10.0 mi West 11.5 mph - N/A   Clear
7:35 PM 8.6 °F -5.5 °F 1.9 °F 74% 30.06 in 10.0 mi West 10.4 mph 16.1 mph N/A   Clear
7:55 PM 7.9 °F -6.4 °F 1.4 °F 75% 30.06 in 10.0 mi West 10.4 mph - N/A   Clear
8:15 PM 7.0 °F -6.6 °F 0.5 °F 75% 30.07 in 10.0 mi West 9.2 mph - N/A   Clear
8:35 PM 7.0 °F -7.5 °F 0.7 °F 75% 30.08 in 10.0 mi West 10.4 mph - N/A   Clear
8:55 PM 7.0 °F -6.6 °F 0.7 °F 75% 30.08 in 10.0 mi West 9.2 mph - N/A   Clear
9:15 PM 6.4 °F -8.2 °F 0.3 °F 76% 30.09 in 10.0 mi West 10.4 mph - N/A   Clear
9:35 PM 5.9 °F -8.0 °F -0.4 °F 75% 30.09 in 10.0 mi West 9.2 mph - N/A   Clear
9:55 PM 5.9 °F -8.0 °F -0.2 °F 76% 30.09 in 10.0 mi West 9.2 mph - N/A   Clear
10:15 PM 6.1 °F -8.7 °F 0.1 °F 77% 30.10 in 10.0 mi WSW 10.4 mph - N/A   Clear
10:35 PM 5.2 °F -8.9 °F -0.2 °F 78% 30.10 in 10.0 mi WSW 9.2 mph - N/A   Clear
10:55 PM 4.8 °F -9.3 °F -0.4 °F 79% 30.11 in 10.0 mi West 9.2 mph - N/A   Clear
11:15 PM 4.6 °F -9.5 °F -0.6 °F 79% 30.11 in 10.0 mi West 9.2 mph - N/A   Clear
11:35 PM 4.8 °F -11.1 °F -0.6 °F 78% 30.11 in 10.0 mi West 11.5 mph - N/A   Clear
11:55 PM 4.6 °F -11.3 °F -1.1 °F 77% 30.12 in 10.0 mi West 11.5 mph 17.3 mph N/A   Clear